Tracking 22287 objects as of 27-Jan-2021
HD Live streaming from Space Station
objects crossing your sky now

USA 12

Track USA 12 now!
USA 12 is classified as:


NORAD ID: 16117
Int'l Code: 1985-092C
Perigee: 36,122.0 km
Apogee: 36,192.7 km
Inclination: 15.2 °
Period: 1,454.7 minutes
Semi major axis: 42528 km
RCS: Unknown
Launch date: October 3, 1985
Source: United States (US)
Launch site: AIR FORCE EASTERN TEST RANGE (AFETR)
aabbcc
Your satellite tracking list
Your tracking list is empty




NASA's NSSDC Master Catalog

Two Line Element Set (TLE):
1 16117U 85092C   21027.62577058  .00000044  00000-0  00000-0 0  9990
2 16117  15.2082   1.4574 0008321  40.0056 178.5605  0.98988563  6257
Source of the keplerian elements: McCants